Location: Houhaj�rvi
(61.2833°N, 23.0000°E)
Time: 02:22:31
(UTC+00:00)

USA 238 - Pass Details

Date: 27 February 2020
Orbit: 1018 x 1194 km, 63.4° (Epoch: 31 March)

Event Time Altitude Azimuth Distance (km) Brightness Sun altitude
Rises 16:15:35 0° 289° (WNW) 3,879 7.9 -4.3°
Reaches altitude 10° 16:18:11 10° 290° (WNW) 2,946 7.1 -4.6°
Maximum altitude 16:25:15 88° 20° (NNE) 1,135 3.9 -5.5°
Drops below altitude 10° 16:32:36 10° 112° (ESE) 3,067 5.6 -6.4°
Enters shadow 16:34:29 - 113° (ESE) 3,733 6.0 -6.6°
